RH
95 91 81 77 76 76 77 76 76 77 78 79 76 77 77 76 76 77 78 78 78 78 78 78 76 74 75 75 74 72 73 74 73 76 75 74 75 77 76 76 76 74 75
90 88 80 77 76 76 77 78 77 77 77 77 78 76 76 77 78 77 77 76 75 76 76 74 74 75 75 74 71 72 73 74 74 72 74 72 71 72 74 74 73 76 76
88 87 83 81 76 76 77 77 77 76 76 76 76 76 76 76 75 74 75 76 75 74 72 73 74 73 74 73 72 72 74 76 74 73 73 86 79 71 72 71 74 76 75
85 88 85 82 79 77 76 76 74 74 75 76 76 76 75 75 74 73 74 75 76 73 76 76 75 74 73 72 72 73 75 73 73 71 81 76 71 75 75 72 74 75 78
88 89 88 78 77 76 76 76 75 76 77 74 73 74 75 75 74 73 73 74 73 76 75 74 72 72 72 70 72 75 75 74 73 72 74 84 81 69 67 70 73 75 73
86 88 82 79 75 75 76 76 75 74 75 74 74 75 74 73 73 74 74 73 75 74 72 72 73 74 73 73 72 69 70 72 72 82 87 85 84 82 72 72 73 72 68
92 89 85 78 75 75 74 74 74 75 75 74 73 74 75 72 73 72 71 71 71 72 74 73 73 70 68 67 68 64 65 68 76 86 83 90 80 77 70 74 72 70 69
89 85 92 82 79 74 72 74 73 72 73 74 73 73 74 74 75 73 74 75 74 72 71 71 70 66 64 66 69 66 67 71 69 84 84 90 84 76 69 73 70 70 69
80 88 92 91 85 75 71 74 73 74 75 75 73 72 74 76 76 74 73 72 70 69 69 69 69 68 66 67 69 71 72 73 81 88 78 89 80 75 66 72 75 73 75
84 83 90 92 92 95 88 76 78 77 74 70 69 71 71 74 74 73 77 73 69 68 67 67 68 70 71 70 69 75 75 68 74 84 84 89 79 75 69 70 74 75 75
84 89 89 89 92 94 96 88 74 77 71 71 74 74 83 95 93 83 76 71 68 66 66 68 70 72 73 74 73 72 71 84 70 85 90 84 76 71 72 68 70 72 75
94 91 87 88 90 93 92 94 95 92 90 83 83 87 95 92 91 81 78 73 69 67 68 70 71 71 72 87 76 73 90 80 79 80 93 80 78 72 69 71 72 70 73
90 83 80 82 85 93 96 91 96 95 89 84 85 93 91 85 90 92 94 90 88 80 84 81 80 87 84 80 89 91 81 88 94 94 88 79 78 72 71 72 71 73 74
85 75 71 76 80 90 91 85 84 93 96 94 92 89 94 92 92 93 93 92 92 92 90 91 84 85 86 90 91 90 83 88 95 94 89 71 78 73 72 70 71 74 78
82 69 68 72 86 89 89 84 79 94 96 94 89 91 93 94 96 94 94 92 92 92 93 87 89 92 87 77 81 77 85 86 86 92 96 75 77 77 74 71 75 77 77
76 72 63 69 77 80 89 88 82 88 84 89 86 85 89 95 96 93 93 85 92 93 92 94 85 90 91 84 79 81 81 87 86 89 92 92 79 81 77 75 75 74 71
71 68 71 66 70 80 87 88 86 87 76 83 82 86 89 94 94 92 89 90 91 91 92 90 94 87 85 84 85 89 89 80 84 81 85 92 89 83 78 76 77 79 78
64 68 66 54 62 79 84 91 87 87 92 88 85 84 82 90 86 90 88 91 90 93 95 95 86 80 86 92 86 90 93 88 84 87 91 86 92 81 84 82 82 81 75
59 63 65 62 66 79 88 92 93 91 87 89 87 86 82 84 82 86 89 89 90 92 96 85 85 74 85 85 69 85 95 91 85 75 85 88 88 87 94 84 86 84 77
55 66 64 63 76 85 93 94 93 85 87 92 86 87 78 74 75 85 81 88 90 83 89 88 89 88 91 82 66 80 92 91 90 89 87 75 86 85 93 88 96 90 81
65 71 71 79 81 90 94 89 85 82 80 81 83 79 75 81 78 88 92 92 84 86 87 81 91 88 84 85 82 83 79 82 88 88 94 93 90 90 90 93 95 92 87
65 72 76 79 80 87 89 86 79 85 84 83 86 84 80 78 81 82 88 90 90 84 86 85 90 93 91 90 83 85 88 70 79 86 91 88 89 88 88 87 94 89 94
63 69 72 73 77 86 88 89 92 91 88 92 91 83 82 80 81 84 84 88 87 92 94 91 91 89 91 89 91 87 85 85 89 91 83 87 84 90 94 91 92 92 92
64 64 68 72 76 81 87 87 87 82 90 93 86 87 78 79 81 80 83 86 86 90 89 92 85 92 95 91 93 94 89 88 78 80 91 90 86 81 93 96 89 90 95
66 62 66 77 74 73 85 86 85 90 94 94 94 88 84 82 86 81 84 90 88 89 90 91 91 92 95 93 93 95 90 94 92 92 78 85 92 90 95 90 89 90 94
66 74 74 82 87 84 86 90 87 85 91 93 93 92 91 90 89 86 84 89 87 91 92 94 92 91 93 93 96 95 94 92 88 86 87 88 89 96 96 97 92 98 98
Wind_Speed
3 5 10 13 13 14 14 13 13 13 13 13 13 13 13 13 12 12 12 10 10 11 12 11 13 11 9 8 9 8 9 9 8 9 6 7 6 6 7 8 7 5 7
5 4 12 12 13 14 14 13 12 12 12 12 12 12 12 12 12 12 11 10 10 11 13 12 11 10 10 9 9 9 8 8 8 7 5 2 3 4 4 6 5 5 8
6 5 6 12 13 14 13 13 12 12 11 11 12 11 10 10 10 11 11 12 11 11 12 10 9 10 9 8 8 7 7 6 8 6 5 2 3 4 4 3 4 6 7
6 5 6 9 12 14 14 13 12 13 11 11 11 12 11 11 10 11 11 12 11 10 11 10 10 9 8 7 6 6 5 5 6 6 3 2 1 5 6 0 4 4 6
5 5 6 13 11 13 13 13 13 11 11 11 11 12 11 11 11 10 12 12 11 10 10 9 9 8 7 5 3 4 4 4 4 7 4 3 1 2 7 8 6 5 4
4 5 9 14 14 13 12 13 13 13 12 12 12 11 12 12 12 9 12 12 12 10 9 8 8 7 5 4 1 2 2 5 8 5 4 5 5 10 10 13 8 6 4
5 2 4 13 15 14 13 13 13 12 12 11 12 11 10 12 11 11 12 12 10 9 7 6 6 5 4 3 3 3 3 7 4 3 4 5 6 13 12 10 10 7 6
5 5 4 10 13 14 14 13 13 13 12 12 12 12 10 10 10 11 10 11 9 7 5 3 3 3 2 1 3 3 2 2 2 3 2 2 6 13 12 9 9 8 8
4 5 3 2 6 13 13 13 13 13 12 11 12 10 9 8 10 10 9 8 6 5 3 2 3 4 4 3 2 3 6 10 4 3 4 2 6 7 11 10 9 7 5
4 3 3 2 3 1 3 11 11 12 11 11 11 9 8 8 8 9 6 4 3 1 1 2 3 5 6 5 3 6 11 5 2 3 3 4 7 8 10 9 8 9 8
3 3 2 3 3 2 1 5 9 12 12 11 8 7 5 4 3 6 3 0 1 2 4 5 6 6 9 10 10 10 10 0 3 3 2 3 4 6 11 10 6 6 7
4 3 3 3 3 3 2 3 4 4 4 3 4 4 3 2 1 3 0 3 3 4 5 7 7 8 7 6 6 9 2 2 3 3 2 5 5 7 10 9 5 3 6
4 4 4 5 4 3 3 3 1 2 1 1 3 1 1 2 1 1 0 1 2 4 3 5 3 4 2 4 6 5 4 2 2 3 2 6 9 5 9 7 4 3 3
5 5 4 4 4 3 2 2 2 2 1 0 1 1 1 1 2 1 1 0 2 2 3 3 3 3 4 8 8 5 5 3 3 2 2 8 6 8 9 9 6 4 6
6 4 5 4 4 3 2 2 2 0 1 0 1 4 3 3 3 2 1 2 1 1 1 4 3 2 2 4 3 4 5 5 4 1 1 5 7 11 6 10 7 5 7
6 6 7 5 5 4 2 3 2 2 3 1 3 4 4 4 4 3 1 1 1 2 2 5 3 3 1 1 0 1 1 5 5 5 3 2 7 6 12 9 7 7 9
7 7 5 5 5 5 5 3 3 3 1 2 3 3 3 2 4 4 2 2 1 1 4 4 2 1 2 3 1 4 5 4 1 4 1 1 1 5 8 5 7 9 8
7 8 7 7 6 5 4 4 3 3 3 3 3 4 5 3 4 4 2 2 2 3 2 2 2 1 2 3 1 1 2 4 3 2 2 2 3 2 5 7 7 6 7
10 7 7 7 8 7 5 4 4 4 3 3 3 4 5 4 4 4 2 3 2 1 2 1 1 0 2 1 1 1 4 3 2 1 1 4 6 5 3 5 7 6 6
10 8 7 7 6 5 4 1 1 2 3 0 2 4 4 3 5 2 2 4 1 3 3 2 2 1 3 1 1 1 3 3 3 2 3 4 5 5 3 3 1 2 6
9 9 8 7 7 6 2 2 1 4 1 1 3 6 5 5 5 4 2 1 2 2 2 3 2 3 3 2 2 2 2 4 5 3 3 3 3 4 5 3 1 1 3
13 10 8 8 6 5 4 3 3 3 1 2 1 4 5 6 5 4 1 1 2 1 2 1 3 2 2 1 2 2 4 5 3 4 3 2 3 3 3 3 0 4 3
13 13 10 9 8 6 6 3 2 2 2 2 1 2 2 5 5 6 4 4 3 2 1 1 1 1 2 2 4 4 0 2 2 3 3 3 1 1 0 3 3 5 2
15 12 11 8 8 7 7 4 4 4 3 3 2 1 2 4 5 6 5 5 3 2 2 1 1 2 2 2 2 1 1 2 2 3 3 3 3 1 2 2 2 1 2
12 12 10 9 10 9 9 7 5 4 3 2 2 3 4 4 4 4 4 4 3 1 3 3 1 1 1 1 1 2 1 1 2 2 1 3 2 1 1 2 2 1 1
9 8 9 9 8 8 8 8 8 8 6 3 3 4 4 3 2 4 4 3 2 3 4 3 1 1 1 1 1 1 0 1 0 1 0 1 1 3 2 1 2 3 3
Wind_Direction
213 205 163 146 144 144 142 136 130 126 126 126 123 122 126 124 126 127 123 125 127 123 119 112 111 120 116 115 117 116 109 120 120 100 87 85 95 100 99 105 109 117 149
147 216 164 153 147 146 145 142 136 135 133 132 129 129 128 126 127 129 134 131 124 121 110 109 111 122 120 115 110 111 116 112 104 110 95 98 143 152 128 120 125 129 140
147 167 166 155 152 145 146 148 142 138 138 135 138 134 130 125 125 130 137 131 128 117 110 114 121 122 119 118 119 124 121 126 125 131 116 7 125 122 127 127 145 156 150
142 149 149 157 151 148 153 150 146 143 145 146 140 137 140 135 139 137 136 132 125 122 118 121 120 120 120 119 125 115 128 136 150 147 131 151 141 136 122 22 177 176 156
140 152 169 160 157 153 153 152 147 140 134 143 142 142 142 141 140 141 131 129 127 118 119 118 108 108 101 98 87 107 153 172 179 150 166 159 14 174 164 223 191 176 150
169 172 170 163 157 158 153 149 148 146 148 144 142 143 142 139 141 148 133 126 123 131 119 126 124 105 94 84 41 239 256 246 241 237 234 183 164 185 210 205 176 175 161
155 167 149 166 163 157 154 153 154 148 143 143 137 138 140 143 134 142 127 132 134 132 145 143 111 94 68 35 271 258 266 266 272 305 235 194 174 195 230 196 173 168 172
132 115 190 180 169 155 158 157 157 151 141 137 133 129 135 130 136 135 135 128 138 142 159 139 91 58 62 22 25 19 269 237 308 337 157 141 193 210 223 209 177 178 196
114 110 111 163 178 163 162 162 161 145 139 135 130 129 126 131 137 133 133 133 145 165 171 51 356 326 336 14 12 305 215 214 178 146 142 161 244 252 241 234 195 201 212
120 125 136 101 107 107 161 166 164 149 138 138 140 132 125 127 133 143 122 141 162 189 262 283 296 320 310 294 301 243 238 270 241 210 170 159 203 231 250 254 233 219 243
136 142 125 119 97 94 124 178 151 151 144 144 132 124 98 54 41 74 114 123 223 277 297 300 302 312 335 335 309 276 287 335 227 59 10 290 191 234 254 259 249 228 218
165 183 159 141 137 122 131 92 81 117 95 102 66 60 84 108 123 70 45 303 293 295 290 280 300 5 347 322 297 293 279 360 338 53 20 304 286 255 251 264 267 267 214
175 186 165 157 160 133 138 106 98 93 120 94 89 65 244 103 23 352 354 331 298 297 333 336 339 104 186 264 259 267 269 110 79 327 330 335 351 285 280 281 272 236 219
179 186 161 166 159 160 145 127 164 147 209 110 192 170 224 355 266 253 184 234 332 360 345 318 292 256 213 215 223 242 255 195 150 209 319 315 321 316 295 288 260 219 210
188 187 189 175 160 156 193 193 216 11 294 335 329 243 214 212 247 190 191 101 357 49 312 273 327 347 208 230 236 233 224 192 153 215 179 273 311 303 302 282 242 191 216
185 197 199 193 159 177 204 219 209 206 235 207 261 287 236 201 191 154 184 100 81 141 214 285 310 354 311 309 288 77 287 169 166 187 183 221 265 285 296 268 225 194 201
195 189 208 186 173 190 205 224 241 242 225 240 270 283 257 217 180 178 166 266 259 277 263 280 349 87 109 281 310 360 19 333 285 153 75 229 309 305 251 204 198 204 185
183 190 185 196 194 213 202 228 238 262 241 232 228 227 235 225 201 186 175 263 257 269 297 291 20 150 209 229 227 23 333 292 244 240 203 176 148 205 203 203 210 206 183
190 180 190 201 190 200 220 216 241 265 259 230 204 219 223 203 209 171 189 256 248 355 318 77 325 231 284 325 10 336 307 301 208 277 206 209 178 181 174 221 208 213 206
190 182 191 197 216 182 170 251 322 296 273 126 188 218 213 201 194 180 218 251 16 31 341 13 295 269 240 120 359 167 293 293 247 70 291 246 204 150 145 204 244 281 266
192 180 198 203 201 155 149 167 183 252 235 226 203 215 204 204 204 209 210 313 37 34 341 305 16 334 351 30 59 15 313 327 13 359 261 223 159 142 151 184 201 229 278
194 194 189 200 197 197 170 181 149 177 201 250 209 222 200 213 232 231 208 166 166 96 320 32 39 344 309 9 91 99 3 333 353 10 359 287 121 126 154 188 349 227 220
196 193 196 201 190 194 192 112 80 62 40 359 310 184 210 213 218 218 218 207 179 135 302 53 351 15 350 1 41 124 349 247 345 323 315 320 335 6 186 166 202 232 143
201 191 184 193 199 192 175 165 160 160 176 230 233 208 276 230 224 216 217 218 200 169 277 293 191 212 133 41 15 263 251 161 152 337 328 315 358 352 216 178 192 212 70
185 189 184 176 198 205 178 186 175 162 174 198 246 216 245 285 258 245 234 234 239 200 256 263 226 194 120 125 137 317 338 37 88 120 295 330 1 69 177 209 292 154 195
180 174 174 173 191 185 186 182 188 186 189 195 224 243 245 244 245 240 253 248 258 252 248 250 235 208 176 4 150 229 227 111 298 112 95 300 337 332 1 333 212 167 154